| time (UTC) | temp F | wind direction | speed MPH | gust MPH | rain 1hr in | rain 24hr in | rain mn in | humidity % | barometer mb |
| 20260906144519 | 69 | 106 | 2.0 | 3.0 | 0.00 | 0.00 | 0.00 | 83 | 1020.8 |
| 20260906143025 | 69 | 170 | 1.0 | 6.0 | 0.00 | 0.00 | 0.00 | 84 | 1020.7 |
| 20260906141529 | 67 | 171 | 0.0 | 2.0 | 0.00 | 0.00 | 0.00 | 86 | 1020.6 |
| 20260906140038 | 66 | 186 | 0.0 | 5.0 | 0.00 | 0.00 | 0.00 | 87 | 1020.8 |
| 20260906134515 | 66 | 123 | 2.0 | 6.0 | 0.00 | 0.00 | 0.00 | 87 | 1020.9 |
| 20260906133027 | 65 | 175 | 1.0 | 4.0 | 0.00 | 0.00 | 0.00 | 87 | 1020.7 |
| 20260906131527 | 64 | 133 | 1.0 | 4.0 | 0.00 | 0.00 | 0.00 | 88 | 1020.6 |
| 20260906130029 | 64 | 145 | 1.0 | 6.0 | 0.00 | 0.00 | 0.00 | 88 | 1020.6 |
| 20260906124532 | 63 | 111 | 1.0 | 5.0 | 0.00 | 0.00 | 0.00 | 89 | 1020.5 |
| 20260906123034 | 62 | 110 | 2.0 | 4.0 | 0.00 | 0.00 | 0.00 | 91 | 1020.4 |
| 20260906121525 | 62 | 164 | 0.0 | 2.0 | 0.00 | 0.00 | 0.00 | 93 | 1020.4 |
| 20260906120032 | 62 | 88 | 0.0 | 4.0 | 0.00 | 0.00 | 0.00 | 93 | 1020.3 |
| 20260906114517 | 62 | 46 | 0.0 | 2.0 | 0.00 | 0.00 | 0.00 | 94 | 1020.3 |
| 20260906113020 | 62 | 94 | 0.0 | 2.0 | 0.00 | 0.00 | 0.00 | 94 | 1020.1 |
| 20260906111524 | 62 | 45 | 0.0 | 2.0 | 0.00 | 0.00 | 0.00 | 94 | 1020.1 |
| 20260906110030 | 62 | 116 | 0.0 | 2.0 | 0.00 | 0.00 | 0.00 | 94 | 1019.6 |
| 20260906104534 | 62 | 229 | 1.0 | 2.0 | 0.00 | 0.00 | 0.00 | 94 | 1019.2 |
| 20260906103014 | 62 | 158 | 0.0 | 2.0 | 0.00 | 0.00 | 0.00 | 94 | 1019.1 |
| 20260906101527 | 62 | 59 | 0.0 | 2.0 | 0.00 | 0.00 | 0.00 | 94 | 1019.2 |
| 20260906100031 | 63 | 39 | 1.0 | 2.0 | 0.00 | 0.00 | 0.00 | 94 | 1019.1 |
| 20260906094529 | 63 | 46 | 0.0 | 2.0 | 0.00 | 0.00 | 0.00 | 95 | 1019.2 |
| 20260906093046 | 64 | 49 | 0.0 | 2.0 | 0.00 | 0.00 | 0.00 | 94 | 1019.2 |
| 20260906091521 | 64 | 106 | 0.0 | 2.0 | 0.00 | 0.00 | 0.00 | 94 | 1019.3 |
| 20260906090030 | 63 | 42 | 1.0 | 2.0 | 0.00 | 0.00 | 0.00 | 94 | 1019.3 |
| 20260906084530 | 63 | 45 | 0.0 | 2.0 | 0.00 | 0.00 | 0.00 | 94 | 1019.2 |
| 20260906083031 | 63 | 45 | 1.0 | 2.0 | 0.00 | 0.00 | 0.00 | 93 | 1019.2 |
| 20260906081534 | 63 | 360 | 0.0 | 2.0 | 0.00 | 0.00 | 0.00 | 92 | 1019.2 |
| 20260906080026 | 63 | 360 | 0.0 | 2.0 | 0.00 | 0.00 | 0.00 | 91 | 1019.1 |
| 20260906074530 | 64 | 239 | 0.0 | 2.0 | 0.00 | 0.00 | 0.00 | 91 | 1019.1 |
| 20260906073047 | 64 | 268 | 0.0 | 2.0 | 0.00 | 0.00 | 0.00 | 92 | 1019.2 |
| 20260906071530 | 64 | 270 | 0.0 | 2.0 | 0.00 | 0.00 | 0.00 | 92 | 1019.3 |
| 20260906070035 | 64 | 274 | 1.0 | 4.0 | 0.00 | 0.00 | 0.00 | 92 | 1019.4 |
| 20260906064525 | 64 | 221 | 1.0 | 2.0 | 0.00 | 0.00 | 0.00 | 92 | 1019.3 |
| 20260906063028 | 64 | 261 | 0.0 | 2.0 | 0.00 | 0.00 | 0.00 | 92 | 1019.5 |
| 20260906061533 | 65 | 263 | 1.0 | 3.0 | 0.00 | 0.00 | 0.00 | 93 | 1019.5 |
| 20260906060018 | 65 | 281 | 1.0 | 2.0 | 0.00 | 0.00 | 0.00 | 93 | 1019.5 |
| 20260906054526 | 65 | 225 | 0.0 | 2.0 | 0.00 | 0.00 | 0.00 | 93 | 1019.4 |
| 20260906053004 | 65 | 136 | 0.0 | 2.0 | 0.00 | 0.00 | 0.00 | 93 | 1019.3 |
| 20260906051518 | 66 | 147 | 0.0 | 2.0 | 0.00 | 0.00 | 0.00 | 92 | 1019.3 |
| 20260906050017 | 66 | 117 | 0.0 | 3.0 | 0.00 | 0.00 | 0.00 | 92 | 1019.3 |
| 20260906044523 | 66 | 122 | 0.0 | 2.0 | 0.00 | 0.00 | 0.00 | 91 | 1019.2 |
| 20260906043039 | 67 | 221 | 2.0 | 4.0 | 0.00 | 0.00 | 0.00 | 91 | 1019.0 |
| 20260906041508 | 67 | 160 | 2.0 | 4.0 | 0.00 | 0.00 | 0.00 | 91 | 1018.9 |
| 20260906040014 | 68 | 107 | 1.0 | 6.0 | 0.00 | 0.00 | 0.00 | 91 | 1018.8 |
| 20260906034526 | 68 | 185 | 1.0 | 5.0 | 0.00 | 0.00 | 0.00 | 92 | 1018.5 |
| 20260906033026 | 68 | 230 | 0.0 | 3.0 | 0.00 | 0.00 | 0.00 | 93 | 1018.4 |
| 20260906031526 | 68 | 138 | 1.0 | 3.0 | 0.00 | 0.00 | 0.00 | 93 | 1018.5 |
| 20260906030011 | 68 | 107 | 0.0 | 3.0 | 0.00 | 0.00 | 0.00 | 92 | 1018.2 |
| 20260906024518 | 68 | 65 | 1.0 | 3.0 | 0.00 | 0.00 | 0.00 | 92 | 1018.1 |
| 20260906023024 | 69 | 127 | 0.0 | 4.0 | 0.00 | 0.00 | 0.00 | 92 | 1017.8 |
| 20260906021529 | 69 | 109 | 2.0 | 5.0 | 0.00 | 0.00 | 0.00 | 91 | 1017.6 |
| 20260906020029 | 69 | 163 | 2.0 | 8.0 | 0.00 | 0.00 | 0.00 | 90 | 1017.5 |
| 20260906014518 | 70 | 118 | 1.0 | 8.0 | 0.00 | 0.00 | 0.00 | 90 | 1017.4 |
| 20260906013021 | 70 | 71 | 2.0 | 8.0 | 0.00 | 0.00 | 0.00 | 90 | 1017.0 |
| 20260906011527 | 70 | 91 | 2.0 | 6.0 | 0.00 | 0.00 | 0.00 | 89 | 1016.9 |
| 20260906010031 | 70 | 185 | 2.0 | 7.0 | 0.00 | 0.00 | 0.00 | 89 | 1016.7 |
| 20260906004513 | 71 | 67 | 3.0 | 6.0 | 0.00 | 0.00 | 0.00 | 88 | 1016.9 |
| 20260906003016 | 71 | 30 | 2.0 | 6.0 | 0.00 | 0.00 | 0.00 | 88 | 1017.1 |
| 20260906001523 | 71 | 52 | 2.0 | 6.0 | 0.00 | 0.00 | 0.00 | 87 | 1017.4 |
| 20260906000028 | 72 | 63 | 1.0 | 3.0 | 0.00 | 0.00 | 0.00 | 86 | 1017.4 |
| 20260905234534 | 72 | 44 | 1.0 | 2.0 | 0.00 | 0.00 | 0.00 | 86 | 1017.4 |
| 20260905233014 | 72 | 49 | 1.0 | 3.0 | 0.00 | 0.00 | 0.00 | 85 | 1017.5 |
| 20260905231520 | 72 | 47 | 1.0 | 3.0 | 0.00 | 0.00 | 0.00 | 84 | 1017.4 |
| 20260905230028 | 73 | 41 | 1.0 | 4.0 | 0.00 | 0.00 | 0.00 | 82 | 1017.4 |
| 20260905224535 | 74 | 21 | 2.0 | 6.0 | 0.00 | 0.00 | 0.00 | 79 | 1017.6 |
| 20260905223035 | 76 | 50 | 2.0 | 4.0 | 0.00 | 0.00 | 0.00 | 76 | 1017.6 |
| 20260905221518 | 76 | 68 | 1.0 | 7.0 | 0.00 | 0.00 | 0.00 | 75 | 1017.6 |
| 20260905220022 | 76 | 32 | 3.0 | 9.0 | 0.00 | 0.00 | 0.00 | 76 | 1017.4 |
| 20260905214529 | 76 | 42 | 2.0 | 9.0 | 0.00 | 0.00 | 0.00 | 76 | 1017.4 |
| 20260905213031 | 75 | 26 | 3.0 | 10.0 | 0.00 | 0.00 | 0.00 | 79 | 1017.0 |
| 20260905211529 | 76 | 86 | 3.0 | 8.0 | 0.00 | 0.00 | 0.00 | 79 | 1017.2 |
| 20260905210020 | 76 | 55 | 2.0 | 9.0 | 0.00 | 0.00 | 0.00 | 79 | 1017.3 |
| 20260905204526 | 76 | 155 | 3.0 | 8.0 | 0.00 | 0.00 | 0.00 | 81 | 1017.5 |
| 20260905203032 | 77 | 55 | 3.0 | 9.0 | 0.00 | 0.00 | 0.00 | 78 | 1017.5 |
| 20260905201532 | 76 | 81 | 4.0 | 10.0 | 0.00 | 0.00 | 0.00 | 79 | 1017.6 |
| 20260905200018 | 75 | 71 | 2.0 | 7.0 | 0.00 | 0.00 | 0.00 | 81 | 1017.7 |
| 20260905194526 | 77 | 36 | 3.0 | 10.0 | 0.00 | 0.00 | 0.00 | 79 | 1017.5 |
| 20260905193030 | 76 | 47 | 3.0 | 9.0 | 0.00 | 0.00 | 0.00 | 82 | 1017.4 |
| 20260905191537 | 74 | 45 | 4.0 | 9.0 | 0.00 | 0.00 | 0.00 | 86 | 1017.5 |
| 20260905190045 | 74 | 45 | 5.0 | 8.0 | 0.00 | 0.00 | 0.00 | 86 | 1017.6 |
| 20260905184523 | 72 | 98 | 3.0 | 7.0 | 0.00 | 0.00 | 0.00 | 88 | 1017.7 |
| 20260905183024 | 72 | 87 | 4.0 | 11.0 | 0.00 | 0.00 | 0.00 | 88 | 1017.8 |
| 20260905181531 | 70 | 88 | 3.0 | 8.0 | 0.00 | 0.00 | 0.00 | 92 | 1017.8 |
| 20260905180031 | 70 | 111 | 2.0 | 7.0 | 0.00 | 0.00 | 0.00 | 93 | 1017.9 |
| 20260905174533 | 70 | 51 | 4.0 | 8.0 | 0.00 | 0.01 | 0.00 | 94 | 1017.9 |
| 20260905173023 | 70 | 67 | 2.0 | 8.0 | 0.00 | 0.07 | 0.00 | 94 | 1018.0 |
| 20260905171533 | 70 | 74 | 4.0 | 9.0 | 0.00 | 0.07 | 0.00 | 95 | 1018.0 |
| 20260905170030 | 69 | 86 | 3.0 | 7.0 | 0.00 | 0.07 | 0.00 | 95 | 1018.0 |
| 20260905164537 | 70 | 63 | 1.0 | 7.0 | 0.00 | 0.07 | 0.00 | 95 | 1018.1 |
| 20260905163032 | 69 | 61 | 3.0 | 7.0 | 0.00 | 0.07 | 0.00 | 95 | 1018.1 |
| 20260905161526 | 69 | 110 | 4.0 | 8.0 | 0.00 | 0.07 | 0.00 | 95 | 1018.1 |
| 20260905160030 | 70 | 184 | 2.0 | 9.0 | 0.00 | 0.07 | 0.00 | 95 | 1018.0 |
| 20260905154532 | 70 | 91 | 3.0 | 9.0 | 0.00 | 0.07 | 0.00 | 95 | 1017.8 |
| 20260905153049 | 70 | 71 | 3.0 | 9.0 | 0.00 | 0.07 | 0.00 | 95 | 1017.8 |
| 20260905151527 | 70 | 27 | 5.0 | 10.0 | 0.00 | 0.07 | 0.00 | 95 | 1017.6 |
| 20260905150027 | 70 | 61 | 2.0 | 8.0 | 0.00 | 0.08 | 0.00 | 95 | 1017.6 |